Location: Kitt Peak
(31.9639°N, 111.5992°W)
Time: 14:35:53
(UTC-07:00)

SRMSAT - Pass Details

Date: 22 December 2025
Orbit: 846 x 863 km, 20.0° (Epoch: 13 January)

Event Time Altitude Azimuth Distance (km) Brightness Sun altitude
Exits shadow 06:44:44 - 250° (WSW) 3,419 ? -8.3°
Rises 06:44:50 0° 249° (WSW) 3,390 ? -8.3°
Reaches altitude 10° 06:48:59 10° 222° (SW) 2,456 ? -7.5°
Maximum altitude 06:51:26 13° 197° (SSW) 2,268 ? -7.0°
Drops below altitude 10° 06:53:54 10° 172° (S) 2,459 ? -6.5°
Sets 06:58:04 0° 144° (SE) 3,398 ? -5.7°
